Regional Weather Roundup
Issued by NWS

Home | Current Version | Previous Version | Text Only | Print | Product List | Glossary On
Versions: 1 2 3 4 5 6 7 8 9 10 11 12 13 14 15 16 17 18 19 20 21 22 23 24 25 26 27 28 29 30 31 32 33 34 35 36 37 38 39 40 41 42 43 44 45 46 47 48 49 50
000
ASUS44 KFWD 300015
RWRTX
NORTH TEXAS HOURLY WEATHER ROUNDUP
NATIONAL WEATHER SERVICE FORT WORTH TX
700 PM CDT SAT AUG 29 2015

NOTE: "FAIR" INDICATES FEW OR NO CLOUDS BELOW 12,000 FEET WITH NO
SIGNIFICANT WEATHER AND/OR OBSTRUCTIONS TO VISIBILITY.

TXZ118-119-300100-
DALLAS/FORT WORTH METROPLEX

CITY           SKY/WX    TMP DP  RH WIND       PRES   REMARKS
DFW AIRPORT    PTSUNNY   92  61  35 S13       29.91S HX  92
6HR MIN TEMP:  92; 6HR MAX TEMP:  96;

DALLAS LOVE    MOSUNNY   92  63  38 S12       29.92S HX  93
6HR MIN TEMP:  90; 6HR MAX TEMP:  96;

FTW MEACHAM    LGT RAIN  86  64  47 W14G23    29.94R
6HR MIN TEMP:  91; 6HR MAX TEMP: 100;

DAL-EXECUTIVE  MOSUNNY   90  63  40 S7        29.93R HX  91
6HR MIN TEMP:  89; 6HR MAX TEMP:  94;

FTW-ALLIANCE   PTSUNNY   87  62  43 W15G23    29.93R
6HR MIN TEMP:  92; 6HR MAX TEMP: 101;

FTW-NAS-JRB    LGT RAIN  82  66  58 W14G23    29.94R
6HR MIN TEMP:  87; 6HR MAX TEMP: 100;

FTW-SPINKS     MOSUNNY   91  61  35 S8        29.94  HX  91
ARLINGTON      PTSUNNY   92  61  35 SE10      29.93R HX  92
6HR MIN TEMP:  92; 6HR MAX TEMP:  97;

GRAND PRAIRIE  SUNNY     91  63  38 SE12      29.93S HX  92
ADDISON        MOSUNNY   90  61  37 S13       29.94S
MESQUITE       SUNNY     90  63  40 SE8       29.94S HX  90
LANCASTER      MOSUNNY   90  60  36 S7        29.94S
6HR MIN TEMP:  89; 6HR MAX TEMP:  92;

$$

TXZ091>094-102>105-117-120-121-131>134-300100-
NORTH CENTRAL TEXAS

CITY           SKY/WX    TMP DP  RH WIND       PRES   REMARKS
SHRMAN/DENISON MOSUNNY   92  64  39 SE13      29.93S HX  94
6HR MIN TEMP:  92; 6HR MAX TEMP:  96;

GAINESVILLE    MOSUNNY   91  63  39 SE15      29.92S HX  92
6HR MIN TEMP:  91; 6HR MAX TEMP:  98;

BOWIE          MOSUNNY   91  61  36 W3        29.91S HX  91
6HR MIN TEMP:  90; 6HR MAX TEMP:  96;

BRIDGEPORT     CLOUDY    81  66  59 SW12      29.96R
6HR MIN TEMP:  81; 6HR MAX TEMP:  98;

DECATUR        PTSUNNY   77  64  63 SW15G28   29.97R
6HR MIN TEMP:  77; 6HR MAX TEMP:  96;

DENTON         PTSUNNY   91  64  40 S13       29.91R HX  92
6HR MIN TEMP:  91; 6HR MAX TEMP:  98;

MCKINNEY       SUNNY     90  64  42 S15       29.92F HX  91
6HR MIN TEMP:  82; 6HR MAX TEMP:  95;

GREENVILLE     MOSUNNY   88  64  45 SE12      29.95S
ROCKWALL       MOSUNNY   89  65  43 S8        29.93S HX  91
6HR MIN TEMP:  89; 6HR MAX TEMP:  94;

TERRELL        PTSUNNY   89  67  47 SE10      29.95S HX  92
6HR MIN TEMP:  89; 6HR MAX TEMP:  94;

WAXAHACHIE     PTSUNNY   91  62  38 SE5       29.95S HX  91
6HR MIN TEMP:  90; 6HR MAX TEMP:  92;

CLEBURNE         N/A     91  63  38 SW10G16   29.96R HX  92
GRANBURY       CLOUDY    90  62  39 SW5       29.98R HX  90
6HR MIN TEMP:  90; 6HR MAX TEMP:  96;

$$

TXZ083>090-098>101-113>116-127>130-139>142-154-155-300100-
WESTERN NORTH TEXAS

CITY           SKY/WX    TMP DP  RH WIND       PRES   REMARKS
WICHITA FALLS  CLOUDY    92  62  36 N9        29.92R HX  92
6HR MIN TEMP:  91; 6HR MAX TEMP:  98;

WF-KICKAPOO    CLOUDY    91  57  31 W15G23    29.94R HX  90
6HR MIN TEMP:  91; 6HR MAX TEMP:  97;

VERNON         CLOUDY    91  58  32 W3        29.96S HX  90
6HR MIN TEMP:  73; 6HR MAX TEMP: 101;

ABILENE        CLOUDY    74  67  78 W6        30.05F
6HR MIN TEMP:  73; 6HR MAX TEMP:  90; 6HR PCP: TRACE;

ABILENE-DYESS  CLOUDY    73  66  80 W6        30.05F
6HR MIN TEMP:  72; 6HR MAX TEMP:  90; 6HR PCP:  0.02;

BRECKENRIDGE   CLOUDY    86  53  32 W16       29.99S HAZE
6HR MIN TEMP:  86; 6HR MAX TEMP:  97;

GRAHAM         PTSUNNY   90  54  29 SW16G23   29.96R
6HR MIN TEMP:  90; 6HR MAX TEMP: 100;

MINERAL WELLS  LGT RAIN  76  69  79 S5        29.96R
6HR MIN TEMP:  76; 6HR MAX TEMP:  97; 6HR PCP:  0.01;

STEPHENVILLE   CLOUDY    83  62  47 SW8       30.02S
6HR MIN TEMP:  83; 6HR MAX TEMP:  93;

COMANCHE       DRIZZLE   79  63  58 W12G17    30.02S
6HR MIN TEMP:  79; 6HR MAX TEMP:  91;

BROWNWOOD      CLOUDY    81  63  54 N6        30.03S
COLEMAN        CLOUDY    79  62  55 CALM      30.04R
6HR MIN TEMP:  78; 6HR MAX TEMP:  85;

BRADY          SUNNY     81  63  54 NW7       30.04F
$$

TXZ143>147-156>162-174-175-300100-
CENTRAL TEXAS

CITY           SKY/WX    TMP DP  RH WIND       PRES   REMARKS
WACO           PTSUNNY   92  62  36 S8        29.94S HX  92
6HR MIN TEMP:  91; 6HR MAX TEMP:  96;

WACO-MCGREGOR  PTSUNNY   92  63  38 SE6       29.95S HX  93
6HR MIN TEMP:  91; 6HR MAX TEMP:  95;

HILLSBORO      PTSUNNY   91  58  32 S9        29.95R HX  90
6HR MIN TEMP:  91; 6HR MAX TEMP:  95;

CORSICANA      MOSUNNY   91  65  41 SE8       29.96S HX  93
6HR MIN TEMP:  90; 6HR MAX TEMP:  94;

MEXIA          MOSUNNY   89  65  44 SE17      29.95R HX  90
6HR MIN TEMP:  89; 6HR MAX TEMP:  95;

HEARNE         SUNNY     90  66  45 SE6       29.96S HX  92
6HR MIN TEMP:  88; 6HR MAX TEMP:  93;

CAMERON        MOSUNNY   90  64  41 S5        29.95S HX  91
6HR MIN TEMP:  88; 6HR MAX TEMP:  94;

TEMPLE         PTSUNNY   90  63  40 SE6       29.96S HX  90
6HR MIN TEMP:  90; 6HR MAX TEMP:  93;

KILLEEN        CLOUDY    90  60  35 S8        29.96S HX  90
6HR MIN TEMP:  89; 6HR MAX TEMP:  94;

KILLEEN-SKYLRK PTSUNNY   90  61  37 SE8       29.96S
6HR MIN TEMP:  90; 6HR MAX TEMP:  95;

FORT HOOD      PTSUNNY   90  62  38 SE8       29.95S HX  90
6HR MIN TEMP:  89; 6HR MAX TEMP:  94;

GATESVILLE     CLOUDY    90  63  40 CALM      29.99S HX  90
HAMILTON       CLOUDY    85  59  41 W9        30.02R
6HR MIN TEMP:  85; 6HR MAX TEMP:  93;

LAMPASAS       CLOUDY    82  64  53 NW9       29.99S
6HR MIN TEMP:  82; 6HR MAX TEMP:  96;

$$

TXZ095>097-106>112-122>126-135>138-148>153-164>167-300100-
EAST TEXAS

CITY           SKY/WX    TMP DP  RH WIND       PRES   REMARKS
PARIS          CLEAR     88  64  45 S12       29.95S
6HR MIN TEMP:  88; 6HR MAX TEMP:  91;

SULPHUR SPRNGS PTCLDY    87  67  51 S9        29.98S HX  90
6HR MIN TEMP:  87; 6HR MAX TEMP:  91;

MOUNT PLEASANT CLEAR     88  67  48 S6        29.97S HX  91
6HR MIN TEMP:  87; 6HR MAX TEMP:  92;

GILMER         PTCLDY    87  66  49 CALM      29.97S
6HR MIN TEMP:  86; 6HR MAX TEMP:  90;

MINEOLA        PTCLDY    88  70  55 CALM      29.97S HX  92
TYLER          PTCLDY    88  68  51 SE5       29.96F HX  91
6HR MIN TEMP:  86; 6HR MAX TEMP:  91;

LONGVIEW       PTCLDY    87  68  52 SE5       29.96S HX  90
6HR MIN TEMP:  87; 6HR MAX TEMP:  91;

MARSHALL       PTCLDY    89  70  53 SW3       29.99S HX  94
6HR MIN TEMP:  89; 6HR MAX TEMP:  93;

ATHENS         MOCLDY    86  68  54 CALM      29.95S
JACKSONVILLE   PTCLDY    90  60  37 SE3       30.00R
HENDERSON      PTCLDY    86  67  53 CALM      29.98S
6HR MIN TEMP:  86; 6HR MAX TEMP:  91;

CENTER         FAIR      85  67  53 CALM      29.96S
6HR MIN TEMP:  85; 6HR MAX TEMP:  92;

NACOGDOCHES    CLEAR     88  61  40 SE6       29.96S
6HR MIN TEMP:  88; 6HR MAX TEMP:  93;

LUFKIN         PTCLDY    88  62  41 SE8       29.96R
6HR MIN TEMP:  88; 6HR MAX TEMP:  95;

$$

SUPPLEMENTAL OBSERVATIONS (CENTRAL)

CITY           SKY/WX    TMP DP  RH WIND       PRES   REMARKS
LAKE TEXOMA      N/A    N/A N/A N/A S7          N/A
CADDO GRASSLND   N/A     90  61  37 S6          N/A
PAT MAYSE LAKE   N/A     88  66  48 SE9         N/A  HX  90
GREENVILLE       N/A     88  68  51 SE8         N/A  HX  91
CEDAR HILL       N/A     90  61  37 SE6G15      N/A
ATHENS           N/A     88  68  51 S3          N/A  HX  91
MCGREGOR         N/A     91  59  33 S3          N/A  HX  90



USA.gov is the U.S. government's official web portal to all federal, state and local government web resources and services.